CAPE
0 0 0 1 1 0 0 0 0 0 0 0 0 0 0 0 0 1 2 16 20 17 18 44 61 62 71 65 62 53 43 28 20 14 10 12 16 32 36 27 26 14 48
0 0 0 0 0 0 0 0 0 0 0 0 0 0 0 0 0 0 0 2 6 5 16 10 9 20 37 42 41 38 29 44 24 15 15 5 41 20 14 36 20 16 12
0 0 0 0 0 0 0 0 0 0 0 0 0 0 0 0 0 0 0 0 7 17 31 15 12 13 12 3 18 20 11 7 16 9 12 5 35 40 13 41 40 44 11
0 0 0 0 0 0 0 0 0 0 0 0 0 0 0 0 0 0 0 0 0 0 0 1 22 10 5 5 7 11 8 11 11 15 12 18 56 48 28 17 54 34 53
0 0 0 0 0 0 0 0 0 0 0 0 0 0 0 0 0 0 0 0 0 0 0 0 0 10 10 4 8 8 15 7 12 11 6 14 40 19 29 27 31 58 20
0 0 0 0 0 0 0 0 0 0 0 0 0 0 0 0 0 0 0 0 0 0 0 0 0 0 0 5 2 10 11 11 27 25 9 12 29 15 18 31 24 47 37
0 0 0 0 0 0 0 0 0 0 0 0 0 0 0 0 0 0 0 0 0 0 0 0 0 0 0 0 0 0 0 0 0 0 18 44 48 17 19 18 24 31 31
0 0 0 0 0 0 0 0 0 0 0 0 0 0 0 0 0 0 0 0 0 0 0 0 0 0 0 0 0 0 0 0 0 0 0 0 0 38 24 23 21 15 31
0 0 0 0 0 0 0 0 0 0 0 0 0 0 0 0 0 0 0 0 0 0 0 0 0 0 0 0 0 0 0 0 0 0 0 0 0 1 25 18 13 20 10
0 0 0 0 0 0 0 0 0 0 0 0 0 0 0 0 0 0 0 0 0 0 0 0 0 0 0 0 0 0 0 0 0 0 0 0 0 0 12 3 8 8 5
0 0 0 0 0 0 0 0 0 0 0 0 0 0 0 0 0 0 0 0 0 0 0 0 0 0 0 0 0 0 0 0 0 0 0 0 4 22 30 10 6 8 4
0 0 0 0 0 0 0 0 0 0 0 0 0 0 0 0 0 0 0 0 0 0 0 0 0 0 0 0 0 0 0 0 0 0 0 0 0 0 0 10 36 1 0
0 0 0 0 0 0 0 0 0 0 0 0 0 0 0 0 0 0 0 0 0 0 0 0 0 0 0 0 0 0 0 0 0 0 0 0 0 0 0 0 0 23 23
0 0 0 0 0 0 0 0 0 0 0 0 0 0 0 0 0 0 0 0 0 0 0 0 0 0 0 0 0 0 0 0 0 0 0 0 0 0 0 0 0 0 0
0 0 0 0 0 0 0 0 0 0 0 0 0 0 0 0 0 0 0 0 0 0 0 0 0 0 0 0 0 0 0 0 0 0 0 0 0 0 0 0 0 0 0
0 0 0 0 0 0 0 0 0 0 0 0 0 0 0 0 0 0 0 0 0 0 0 0 0 0 0 0 0 0 0 0 0 0 0 0 0 0 0 0 0 0 0
0 0 0 0 0 0 0 0 0 0 0 0 0 0 0 0 0 0 0 0 0 0 0 0 0 0 0 0 0 0 0 0 0 0 0 0 0 0 0 0 0 0 0
0 0 0 0 0 0 0 0 0 0 0 0 0 0 0 0 0 0 0 0 0 0 0 0 0 0 0 0 0 0 0 0 0 0 0 0 0 0 0 0 0 0 0
0 0 0 0 0 0 0 0 0 0 0 0 0 0 0 0 0 0 0 0 0 0 0 0 0 0 0 0 0 0 0 0 0 0 0 0 0 0 0 0 0 0 0
0 0 0 0 0 0 0 0 0 0 0 0 0 0 0 0 0 0 0 0 0 0 0 0 0 0 0 0 0 0 0 0 0 0 0 0 0 0 0 0 0 0 0
1 0 0 0 0 0 0 0 0 0 0 0 0 0 0 0 0 0 0 0 0 0 0 0 0 0 0 0 0 0 0 0 0 0 0 0 0 0 0 0 0 0 0
1 0 0 0 4 0 0 0 0 0 0 0 0 0 0 0 0 0 0 0 0 0 0 0 0 0 0 0 0 0 0 0 0 0 0 0 0 0 0 0 0 0 0
1 1 1 0 31 26 0 0 0 4 1 0 0 0 0 0 0 0 0 0 0 0 0 0 0 0 0 0 0 0 0 0 0 0 0 0 0 0 0 0 0 0 0
1 1 0 3 1 1 0 0 0 28 6 0 0 0 0 0 0 0 0 0 0 0 0 0 0 0 0 0 0 0 0 0 0 0 0 0 0 0 0 0 0 0 0
0 2 2 4 2 3 1 0 1 14 1 0 0 0 0 0 0 0 0 0 0 0 0 0 0 0 0 0 0 0 1 1 0 0 0 0 0 0 0 0 0 0 0
0 1 1 2 6 5 9 4 1 0 0 2 0 0 0 0 0 0 0 0 0 0 0 0 1 0 0 0 0 0 0 0 0 0 0 0 0 0 0 0 0 0 0
CIN
0 0 0 -99 -93 0 0 0 0 0 0 0 0 0 -41 -28 0 -42 -20 -30 -3 -4 -8 -2 -1 0 0 0 0 0 0 0 0 0 -1 0 0 0 0 0 -1 0 0
0 0 0 0 0 0 0 0 0 0 0 0 0 0 0 0 0 0 0 -24 -2 -1 0 0 -1 -4 -2 -1 -1 0 0 0 0 0 0 0 0 -1 0 -1 0 0 -1
0 0 0 0 0 0 0 0 0 0 0 0 0 0 0 0 0 0 0 0 -34 -33 -3 0 0 0 -1 0 0 0 0 0 0 0 0 -1 -2 -1 0 0 0 -3 0
0 0 0 0 0 0 0 0 0 0 0 0 0 0 0 0 0 0 0 0 0 0 0 0 0 0 0 0 0 0 0 0 0 0 0 -2 0 -1 -2 -1 0 0 0
0 0 0 0 0 0 0 0 0 0 0 0 0 0 0 0 0 0 0 0 0 0 0 0 0 -12 0 0 0 0 0 0 0 0 0 -1 -1 -2 0 0 -2 0 -2
0 0 0 0 0 0 0 0 0 0 0 0 0 0 0 0 0 0 0 0 0 0 0 0 0 0 -1 0 0 0 0 0 -2 -2 0 -1 -5 -1 -1 -2 0 0 -1
0 0 0 0 0 0 0 0 0 0 0 0 0 0 0 0 0 0 0 0 0 0 0 0 0 0 0 0 0 0 0 0 0 0 -3 0 0 -3 -5 0 -1 0 0
0 0 0 0 0 0 0 0 0 0 0 0 0 0 0 0 0 0 0 0 0 0 0 0 0 0 0 0 0 0 0 0 0 0 0 0 0 0 -2 -1 0 0 -1
0 0 0 0 0 0 0 0 0 0 0 0 0 0 0 0 0 0 0 0 0 0 0 0 0 0 0 0 0 0 0 0 0 0 0 0 0 -1 0 -1 0 -1 -1
0 0 0 0 0 0 0 0 0 0 0 0 0 0 0 0 0 0 0 0 0 0 0 0 0 0 0 0 0 0 0 0 0 0 0 0 0 0 -2 -1 -1 -1 0
0 0 0 0 0 0 0 0 0 0 0 0 0 0 0 0 0 0 0 0 0 0 0 0 0 0 0 0 0 0 0 0 0 0 0 0 0 0 0 -5 -6 -4 -15
0 0 0 0 0 0 0 0 0 0 0 0 0 0 0 0 0 0 0 0 0 0 0 0 0 0 0 0 0 0 0 0 0 0 0 0 0 0 0 -1 -1 -7 0
0 0 0 0 0 0 0 0 0 0 0 0 0 0 0 0 0 0 0 0 0 0 0 0 0 0 0 0 0 0 0 0 0 0 0 0 0 0 0 0 0 -1 -2
0 0 0 0 0 0 0 0 0 0 0 0 0 0 0 0 0 0 0 0 0 0 0 0 0 0 0 0 0 0 0 0 0 0 0 0 0 0 0 0 0 0 0
0 0 0 0 0 0 0 0 0 0 0 0 0 0 0 0 0 0 0 0 0 0 0 0 0 0 0 0 0 0 0 0 0 0 0 0 0 0 0 0 0 0 0
0 0 0 0 0 0 0 0 0 0 0 0 0 0 0 0 0 0 0 0 0 0 0 0 0 0 0 0 0 0 0 0 0 0 0 0 0 0 0 0 0 0 0
0 0 0 0 0 0 0 0 0 0 0 0 0 0 0 0 0 0 0 0 0 0 0 0 0 0 0 0 0 0 0 0 0 0 0 0 0 0 0 0 0 0 0
0 0 0 0 0 0 0 0 0 0 0 0 0 0 0 0 0 0 0 0 0 0 0 0 0 0 0 0 0 0 0 0 0 0 0 0 0 0 0 0 0 0 0
0 0 0 0 0 0 0 0 0 0 0 0 0 0 0 0 0 0 0 0 0 0 0 0 0 0 0 0 0 0 0 0 0 0 0 0 0 0 0 0 0 0 0
0 0 0 0 0 0 0 0 0 0 0 0 0 0 0 0 0 0 0 0 0 0 0 0 0 0 0 0 0 0 0 0 0 0 0 0 0 0 0 0 0 0 0
0 0 0 0 0 0 0 0 0 0 0 0 0 0 0 0 0 0 0 0 0 0 0 0 0 0 0 0 0 0 0 0 0 0 0 0 0 0 0 0 0 0 0
0 0 0 -1 -65 -1 0 0 0 0 0 0 0 0 0 0 0 0 0 0 0 0 0 0 0 0 0 0 0 0 0 0 0 0 0 0 0 0 0 0 0 0 0
0 0 0 0 0 -11 0 0 0 -107 -17 0 0 0 0 0 0 0 0 0 0 0 0 0 0 0 0 0 0 0 0 0 0 0 0 0 0 0 0 0 0 0 0
0 0 0 0 0 0 0 0 0 -42 -137 0 0 0 0 0 0 0 0 0 0 0 0 0 0 0 0 0 0 0 0 0 0 0 0 0 0 0 0 0 0 0 0
0 0 0 0 0 0 0 0 0 -79 -34 0 0 0 0 0 0 0 0 0 0 0 0 0 0 0 0 0 0 0 0 0 0 0 0 0 0 0 0 0 0 0 0
0 0 0 0 0 0 0 0 0 0 0 0 0 0 0 0 0 0 0 0 0 0 0 0 0 0 0 0 0 0 0 0 0 0 0 0 0 0 -1 0 0 0 0
Wind_Speed
6 5 4 4 5 6 7 7 7 6 7 6 5 6 6 6 6 3 3 10 10 9 12 14 13 14 15 15 16 15 16 17 16 15 15 16 15 18 19 17 17 16 18
7 7 5 5 5 5 5 8 8 7 5 5 5 5 6 6 6 6 4 5 11 11 10 9 8 11 13 15 16 15 15 16 15 14 15 14 14 15 15 16 15 17 16
9 8 5 4 4 4 7 7 6 6 6 4 6 5 5 5 5 6 4 4 5 11 12 13 12 9 9 8 12 11 12 12 13 13 13 14 14 13 16 16 14 15 16
9 8 7 5 5 6 7 8 8 5 5 5 4 4 4 4 5 5 4 3 4 4 7 10 10 11 9 10 9 10 11 12 14 12 11 9 14 17 16 15 17 16 18
12 10 6 5 7 5 7 8 4 9 5 4 5 4 4 4 4 3 5 4 4 4 3 7 8 9 8 10 10 11 12 11 14 13 11 10 12 15 16 15 16 17 14
11 9 7 7 8 6 6 7 9 4 5 5 6 4 3 2 2 2 3 2 3 3 3 4 3 4 8 8 9 11 11 10 12 10 11 11 11 14 13 14 14 15 15
11 10 7 9 8 9 10 10 8 10 3 4 4 3 3 2 2 2 2 2 2 3 3 2 1 2 2 7 6 8 9 9 10 10 13 13 12 10 13 12 13 12 14
12 10 10 10 10 8 10 11 11 4 3 5 4 3 3 2 1 0 1 2 3 2 2 3 2 2 1 2 1 4 5 6 9 8 8 8 10 12 12 13 12 11 13
13 13 12 11 10 10 9 10 10 7 9 3 7 5 3 4 3 0 2 2 3 2 2 3 3 3 3 2 0 1 1 3 5 5 7 8 7 7 10 11 10 10 9
14 12 13 12 12 9 11 9 9 6 7 8 1 1 0 5 4 3 1 1 2 3 4 2 3 3 4 3 4 4 4 3 1 1 2 2 3 2 4 5 6 8 8
13 14 15 14 13 10 11 12 10 10 9 6 4 3 1 2 2 4 3 2 1 3 3 4 4 3 4 4 3 4 6 5 3 2 2 1 2 3 3 2 2 4 7
11 14 15 14 13 13 13 11 12 11 10 6 4 4 4 4 3 4 3 2 3 3 3 3 4 4 4 4 4 6 6 7 6 4 4 3 2 3 4 6 4 2 1
10 14 15 15 13 13 13 11 11 10 11 7 7 4 3 3 4 3 4 2 3 2 1 3 4 4 3 3 3 6 6 7 7 5 6 5 3 1 2 4 4 3 4
13 15 14 15 15 14 13 11 9 8 8 8 9 5 4 4 3 4 5 5 2 0 0 3 3 4 3 4 4 4 3 5 6 7 6 6 5 3 3 4 5 5 5
11 13 14 14 14 14 14 13 10 10 9 8 8 6 4 3 3 3 3 4 5 4 4 3 2 3 3 3 4 3 3 4 5 6 5 6 6 6 6 6 6 6 5
14 14 14 14 13 13 13 13 10 10 10 7 5 7 4 3 4 3 4 3 2 4 2 4 4 2 3 2 3 4 4 3 4 5 5 5 6 6 6 7 8 8 8
15 16 16 15 15 14 13 13 11 10 12 9 6 8 7 6 4 4 3 2 3 3 3 2 2 2 3 4 3 2 2 2 3 5 5 5 6 6 6 7 7 9 9
16 17 17 16 15 15 14 15 13 11 13 11 10 9 8 5 6 5 4 5 4 4 4 5 3 3 4 3 3 3 4 3 3 5 6 6 6 6 6 6 6 7 8
18 16 16 17 16 16 15 15 14 13 13 13 12 12 10 9 7 4 4 5 4 3 2 3 4 1 2 1 2 1 2 2 2 6 6 6 6 6 6 6 6 7 8
10 17 17 16 15 15 15 15 14 13 13 12 12 12 10 12 11 9 6 7 5 5 4 3 3 2 1 1 1 2 3 2 2 2 3 4 5 5 6 8 8 8 8
11 12 18 16 15 13 12 15 15 14 14 13 12 11 11 11 13 12 8 7 7 5 3 4 3 3 3 2 4 3 3 1 3 3 1 2 1 2 3 5 7 8 9
13 14 19 19 16 11 17 18 17 14 14 13 12 11 9 12 11 12 12 12 11 8 6 4 3 4 4 4 3 4 3 2 2 1 3 2 1 3 4 4 7 10 11
10 12 13 6 13 14 18 22 22 15 15 15 14 12 10 7 10 8 9 8 9 11 8 8 6 6 5 7 5 4 4 4 4 1 1 2 1 4 3 5 9 10 12
12 11 10 10 10 9 17 15 24 17 14 15 16 16 14 11 9 8 7 6 6 6 7 5 7 6 6 6 6 6 6 3 0 2 3 2 2 3 3 5 10 10 10
10 13 12 14 13 13 23 17 6 17 15 14 11 11 12 11 12 14 8 7 5 5 5 9 9 7 9 9 7 5 3 3 2 2 4 3 3 3 3 5 4 5 6
8 9 11 14 22 16 30 29 19 7 13 9 11 9 12 9 12 12 7 7 7 5 5 3 2 2 5 6 11 6 5 4 3 1 3 4 2 1 4 2 2 3 3
Wind_Direction
140 130 131 131 115 116 121 119 119 114 106 98 86 96 96 92 78 62 58 81 80 75 74 78 70 80 86 82 78 79 77 74 66 62 59 64 64 63 54 54 53 51 52
136 138 140 129 119 119 113 130 129 124 111 108 93 94 88 85 86 79 57 58 108 104 102 89 79 69 78 82 73 69 67 72 68 57 61 60 60 75 63 58 58 53 51
142 143 137 136 129 116 113 114 101 106 100 95 101 95 95 96 91 85 73 66 59 68 70 86 99 95 81 81 63 73 70 64 60 66 68 67 55 70 66 50 63 51 63
142 147 143 140 130 121 127 128 128 108 110 122 116 106 95 90 96 91 78 63 60 55 51 77 68 94 87 78 80 86 81 79 71 72 73 73 67 68 60 57 49 49 52
155 144 142 134 138 125 134 134 118 136 129 119 125 107 101 110 116 99 98 97 85 77 64 71 63 52 80 83 81 90 83 73 80 82 76 57 75 64 57 54 49 48 45
152 148 142 141 141 136 131 130 133 120 138 143 127 101 94 112 114 130 133 110 108 101 93 77 53 37 64 76 81 96 86 64 69 86 87 78 82 76 65 54 54 45 46
161 150 146 151 153 154 149 146 137 139 98 124 104 77 47 55 117 152 156 168 158 144 132 113 91 59 31 55 68 86 91 83 76 62 61 69 63 86 85 71 57 50 48
166 162 152 163 165 154 147 152 150 130 114 170 135 113 121 21 7 240 204 194 200 172 185 187 183 170 123 85 17 67 64 73 80 84 67 64 61 72 80 74 66 53 50
171 170 162 164 167 161 162 161 157 150 159 208 175 136 128 184 141 330 228 225 188 200 214 185 204 210 193 170 145 345 122 69 74 79 72 75 70 82 78 64 66 59 54
175 170 166 165 168 166 166 169 166 149 152 174 123 233 132 145 159 142 281 236 200 214 217 222 213 216 209 192 199 213 230 177 153 89 112 78 92 5 32 81 98 89 71
175 173 172 168 169 170 172 173 171 163 172 171 159 159 126 81 92 128 147 209 287 229 230 211 211 218 218 200 202 222 226 208 208 181 254 273 343 22 1 327 242 123 111
179 177 174 174 173 174 177 176 178 174 176 165 182 169 164 157 176 139 120 149 173 237 218 214 214 213 216 213 215 219 215 216 220 219 250 267 298 323 343 350 8 144 115
181 185 179 177 176 174 174 175 178 179 181 174 168 188 176 183 143 128 119 141 145 230 216 227 228 213 208 209 221 218 225 223 221 228 245 256 273 311 322 328 340 346 281
184 180 181 178 175 175 173 176 178 182 182 187 183 175 178 196 159 152 144 142 85 47 315 220 223 214 205 203 215 202 218 228 225 228 242 262 288 285 287 302 311 319 318
178 178 183 178 176 175 176 178 180 184 185 187 192 174 170 188 166 152 142 141 144 153 225 253 208 213 201 183 211 182 197 232 228 235 240 251 260 263 266 272 279 286 294
179 173 180 180 177 179 179 180 183 183 180 185 174 172 178 169 173 154 151 148 133 136 174 191 227 214 191 198 206 188 203 236 249 241 245 248 254 258 255 259 264 267 269
181 179 180 179 180 182 181 184 185 175 186 177 168 176 187 168 177 166 153 147 150 135 144 260 216 204 184 190 207 216 219 233 265 261 249 245 255 252 249 258 263 265 262
186 183 182 181 180 182 181 184 180 181 184 182 178 177 190 174 179 175 173 184 179 170 142 187 215 219 210 201 201 206 235 231 242 260 253 248 248 252 248 262 263 267 270
186 183 184 184 183 184 182 189 187 185 189 191 187 188 188 178 187 171 183 182 178 160 162 145 200 228 212 141 203 237 242 264 249 257 274 270 261 253 249 253 256 259 259
217 182 184 188 187 184 185 188 189 189 192 191 189 192 186 187 187 183 183 190 171 166 160 170 177 190 168 203 146 207 261 240 276 262 251 254 264 267 254 249 246 250 257
354 207 182 192 185 187 191 188 189 192 193 191 191 191 191 189 185 184 176 183 167 164 156 181 177 165 174 175 193 186 215 224 276 228 263 260 264 296 279 273 263 255 257
5 354 201 180 191 197 193 188 187 192 193 193 195 191 185 178 189 179 182 174 174 171 178 166 174 188 203 194 174 178 173 151 277 204 190 270 164 279 270 272 266 271 278
10 8 333 116 194 201 196 186 187 197 197 199 195 187 177 173 165 172 184 177 181 184 166 178 174 191 193 196 160 171 187 179 206 265 132 292 102 285 297 287 270 267 273
14 19 347 44 58 43 25 228 188 196 192 193 184 177 165 164 166 157 156 174 193 193 197 190 187 197 200 177 175 174 177 170 136 236 168 216 205 253 294 278 273 276 283
27 27 24 42 46 34 30 16 281 188 188 181 173 161 158 158 155 148 156 172 187 213 196 185 198 199 183 167 152 120 153 140 234 241 205 200 224 243 237 278 300 297 298
22 53 35 44 39 34 33 27 23 316 170 124 95 87 72 121 150 146 165 168 180 203 182 174 173 208 201 179 169 176 158 169 168 330 233 181 239 162 320 265 303 290 293